Weather History for Tucson Davis Monthan, AZ

Change the Weather History Date:

Saturday, April 5, 2014

  Actual Average Record
Temperature  
Mean Temperature 60 °F -  
Max Temperature 70 °F 80 °F 96 °F (1989)
Min Temperature 50 °F 48 °F 35 °F (1999)
Degree Days  
Heating Degree Days 5    
Growing Degree Days 10 (Base 50)    
Moisture  
Dew Point 18 °F    
Average Humidity 18    
Maximum Humidity 25    
Minimum Humidity 13    
Precipitation  
Precipitation 0.00 in - - ()
Sea Level Pressure  
Sea Level Pressure 29.80 in    
Wind  
Wind Speed 6 mph (WSW)    
Max Wind Speed 14 mph    
Max Gust Speed 24 mph    
Visibility 10 miles    
Events      
Averages and records for this station are not official NWS values.
T = Trace of Precipitation, MM = Missing Value Source: NWS Daily Summary

Daily Weather History Graph

Daily Weather History Graph

Search for Another Location

Airport:

Trip Planner

Search our weather history database for the weather conditions in past years. The results will help you decide how hot, cold, wet, or windy it might be!

Date:

Astronomy

Apr. 05, 2014 Rise Set
Actual Time 6:06 AM MST 6:46 PM MST
Civil Twilight 5:41 AM MST 7:10 PM MST
Nautical Twilight 5:12 AM MST 7:40 PM MST
Astronomical Twilight 4:43 AM MST 8:09 PM MST
Moon 10:29 AM MST (4/5) No Moon Set
Length of Visible Light 13h 29m
Length of Day
12h 39m
Waxing Crescent, 35% of the Moon is Illuminated
Apr 5
Waxing Crescent
Apr 7
First Quarter
Apr 15
Full
Apr 22
Last Quarter
Apr 28
New

Hourly Weather History & Observations

Time (MST) Temp. Dew Point Humidity Pressure Visibility Wind Dir Wind Speed Gust Speed Precip Events Conditions
12:58 AM 57.7 °F 13.5 °F 18% 29.78 in 10.0 mi South 3.5 mph - N/A   Clear
1:58 AM 54.5 °F 13.5 °F 20% 29.77 in 10.0 mi South 5.8 mph - N/A   Clear
2:58 AM 54.0 °F 14.9 °F 21% 29.77 in 10.0 mi WSW 8.1 mph - N/A   Clear
3:58 AM 52.3 °F 14.9 °F 23% 29.76 in 10.0 mi South 4.6 mph - N/A   Partly Cloudy
4:58 AM 50.2 °F 14.9 °F 25% 29.77 in 10.0 mi SSE 6.9 mph - N/A   Clear
5:58 AM 50.0 °F 14.7 °F 25% 29.78 in 10.0 mi SSE 8.1 mph - N/A   Partly Cloudy
6:58 AM 50.5 °F 15.3 °F 25% 29.81 in 10.0 mi South 8.1 mph - N/A   Clear
7:58 AM 57.9 °F 17.2 °F 20% 29.81 in 10.0 mi SSW 5.8 mph - N/A   Clear
8:58 AM 61.2 °F 17.6 °F 18% 29.82 in 10.0 mi SW 2.3 mph - N/A   Clear
9:58 AM 63.1 °F 18.0 °F 18% 29.83 in 10.0 mi North 4.6 mph - N/A   Clear
10:58 AM 64.4 °F 16.5 °F 16% 29.81 in 10.0 mi Variable 5.8 mph - N/A   Clear
11:58 AM 67.5 °F 18.5 °F 15% 29.81 in 10.0 mi West 8.1 mph - N/A   Clear
12:58 PM 69.3 °F 19.4 °F 15% 29.78 in 10.0 mi WNW 6.9 mph - N/A   Scattered Clouds
1:58 PM 69.8 °F 18.9 °F 14% 29.76 in 10.0 mi Variable 2.3 mph - N/A   Mostly Cloudy
2:58 PM 69.1 °F 18.3 °F 14% 29.75 in 10.0 mi SW 5.8 mph - N/A   Partly Cloudy
3:58 PM 70.5 °F 17.8 °F 13% 29.75 in 10.0 mi West 10.4 mph - N/A   Partly Cloudy
4:23 PM 69.8 °F 17.6 °F 14% 29.81 in 10.0 mi West 13.8 mph 24.2 mph N/A   Scattered Clouds
4:58 PM 70.7 °F 18.0 °F 13% 29.75 in 10.0 mi West 11.5 mph - N/A   Mostly Cloudy
5:58 PM 67.8 °F 18.9 °F 15% 29.76 in 10.0 mi West 8.1 mph - N/A   Overcast
6:40 PM 66.2 °F 21.2 °F 18% 29.83 in 10.0 mi West 12.7 mph - N/A   Mostly Cloudy
6:58 PM 66.6 °F 19.4 °F 17% 29.78 in 10.0 mi Variable 3.5 mph - N/A   Mostly Cloudy
7:58 PM 65.8 °F 18.7 °F 16% 29.79 in 10.0 mi North 10.4 mph - N/A   Mostly Cloudy
8:58 PM 63.5 °F 20.8 °F 20% 29.83 in 10.0 mi NW 9.2 mph - N/A   Mostly Cloudy
9:58 PM 60.6 °F 20.8 °F 22% 29.84 in 10.0 mi NNW 5.8 mph - N/A   Overcast
10:58 PM 59.5 °F 21.0 °F 23% 29.86 in 10.0 mi NW 6.9 mph - N/A   Overcast
11:58 PM 57.9 °F 19.6 °F 23% 29.88 in 10.0 mi West 5.8 mph - N/A   Clear